[ hide orbit diagram ]
For accurate long-term ephemerides, please instead use our Horizons system.This orbit viewer was implemented using two-body methods, and hence should not be used for determining accurate long-term trajectories (over several years or decades) or planetary encounter circumstances.
Orbital Elements at Epoch 2459000.5 (2020-May-31.0) TDB
Reference: JPL 36 (heliocentric ecliptic J2000)
Element | Value | Uncertainty (1-sigma) | Units |
e | .228084921592582 | 3.4334e-08 | |
a | 2.391455142879367 | 6.4007e-09 | au |
q | 1.84600028412355 | 8.2836e-08 | au |
i | 1.53576571175763 | 3.5815e-06 | deg |
node | 326.6108260370409 | 0.00013105 | deg |
peri | 55.87903119973165 | 0.00013123 | deg |
M | 260.0192508322787 | 7.4947e-06 | deg |
tp | 2459375.650622497780 (2021-Jun-10.15062250) | 2.8898e-05 | TDB |
period | 1350.802281673669 3.70 | 5.4231e-06 1.485e-08 | d yr |
n | .2665082853975885 | 1.07e-09 | deg/d |
Q | 2.936910001635185 | 7.8606e-09 | au |
|
| | Orbit Determination Parameters
Additional Information
|
[ show covariance matrix ]
Physical Parameter Table
Parameter |
Symbol |
Value |
Units |
Sigma |
Reference |
Notes |
absolute magnitude |
H |
14.0 |
|
n/a |
MPO384799 |
|
rotation period |
rot_per |
3.48 |
h |
n/a |
LCDB (Rev. 2020-October); Warner et al., 2009 |
Result based on less than full coverage, so that the period may be wrong by 30 percent or so. Published Reference List: [Chang, C.-K.; Lin, H.-W.; Ip, W.-H.; Prince, T.A.; et al. (2016) Astrophys. J. Sup. Ser. 227, A20.] [Erasmus, N.; Navarro-Meza, S.; McNeill, A.; Trilling, D.E.; et al. (2020) Ap. J. Suppl. Ser. 247, A13.] |
|
5063 Monteverdi (1989 CJ5) Discovered 1989-Feb-02 by Borngen, F. at Tautenburg |
Reference: DISCOVERY.DB | Last Updated: 2003-08-29 |
|
Alternate Designations
1989 CJ5 = 1954 SK = 1991 RU1 |
|
|